New Orleans NAS, LA

5:06 PM CDT on April 23, 2018 (GMT -0500)
New Orleans Naval Air Station

Weather History for KNBG - September, 2013

Change the Weather History Date:

Saturday, September 21, 2013

  Actual Average Record
Temperature  
Mean Temperature 78 °F -  
Max Temperature 82 °F 83 °F 93 °F (1997)
Min Temperature 75 °F 68 °F 60 °F (2006)
Cooling Degree Days 14    
Growing Degree Days 28 (Base 50)    
Moisture  
Dew Point 74 °F    
Average Humidity 88    
Maximum Humidity 94    
Minimum Humidity 79    
Precipitation  
Precipitation 0.00 in - - ()
Sea Level Pressure  
Sea Level Pressure 29.78 in    
Wind  
Wind Speed 7 mph (SSW)    
Max Wind Speed 10 mph    
Max Gust Speed 22 mph    
Visibility 8 miles    
Events Rain , Thunderstorm    
Averages and records for this station are not official NWS values.
T = Trace of Precipitation, MM = Missing Value Source: NWS Daily Summary

Daily Weather History Graph

Daily Weather History Graph

Search for Another Location

Airport or City:

Astronomy

Sep. 21, 2013 Rise Set
Actual Time 6:48 AM CDT 6:57 PM CDT
Civil Twilight 6:24 AM CDT 7:21 PM CDT
Nautical Twilight 5:56 AM CDT 7:49 PM CDT
Astronomical Twilight 5:28 AM CDT 8:17 PM CDT
Moon 8:23 PM CDT (9/21) 8:53 AM CDT (9/21)
Length of Visible Light 12h 57m
Length of Day
12h 09m
Waning Gibbous, 94% of the Moon is Illuminated
Sep 21
Waning Gibbous
Sep 26
Last Quarter
Oct 4
New
Oct 11
First Quarter
Oct 18
Full

Hourly Weather History & Observations

Time (CDT) Temp. Heat Index Dew Point Humidity Pressure Visibility Wind Dir Wind Speed Gust Speed Precip Events Conditions
12:55 AM 82.0 °F 89.4 °F 75.9 °F 82% 29.82 in 10.0 mi South 9.2 mph - N/A   Clear
1:55 AM 82.0 °F 89.4 °F 75.9 °F 82% 29.81 in 10.0 mi South 8.1 mph - N/A   Clear
2:55 AM 82.0 °F 89.4 °F 75.9 °F 82% 29.80 in 10.0 mi South 9.2 mph - N/A   Partly Cloudy
3:55 AM 82.0 °F 88.6 °F 75.0 °F 79% 29.78 in 10.0 mi South 8.1 mph - N/A   Clear
4:55 AM 82.0 °F 88.6 °F 75.0 °F 79% 29.78 in 10.0 mi South 8.1 mph - N/A Rain Light Rain
5:55 AM 80.1 °F 85.4 °F 75.9 °F 87% 29.78 in 10.0 mi South 8.1 mph - N/A Rain Light Rain
6:20 AM 80.6 °F 86.2 °F 75.2 °F 84% 29.80 in 6.0 mi SW 6.9 mph - N/A Rain , Thunderstorm Light Thunderstorms and Rain
6:55 AM 75.9 °F - 73.0 °F 91% 29.80 in 5.0 mi South 10.4 mph 21.9 mph N/A Rain , Thunderstorm Light Thunderstorms and Rain
7:55 AM 75.9 °F - 72.0 °F 87% 29.81 in 10.0 mi South 10.4 mph - N/A Rain , Thunderstorm Light Thunderstorms and Rain
8:33 AM 75.2 °F - 71.6 °F 89% 29.84 in 2.0 mi South 10.4 mph - N/A Rain , Thunderstorm Light Thunderstorms and Rain
8:42 AM 75.2 °F - 71.6 °F 89% 29.84 in 3.0 mi South 10.4 mph - N/A Rain , Thunderstorm Light Thunderstorms and Rain
8:55 AM 75.0 °F - 73.0 °F 94% 29.84 in 1.0 mi South 10.4 mph - N/A Rain , Thunderstorm Light Thunderstorms and Rain
9:01 AM 75.2 °F - 71.6 °F 89% 29.84 in 1.0 mi WSW 10.4 mph - N/A Rain , Thunderstorm Light Thunderstorms and Rain
9:55 AM 75.0 °F - 72.0 °F 90% 29.83 in 2.0 mi SSW 3.5 mph - N/A Rain , Thunderstorm Light Thunderstorms and Rain
10:05 AM 75.2 °F - 73.4 °F 94% 29.83 in 4.0 mi Calm Calm - N/A Rain , Thunderstorm Light Thunderstorms and Rain
10:22 AM 75.2 °F - 73.4 °F 94% 29.82 in 4.0 mi Calm Calm - N/A Rain Light Rain
10:55 AM 75.9 °F - 73.0 °F 91% 29.80 in 4.0 mi South 4.6 mph - N/A Rain Light Rain
11:55 AM 75.9 °F - 73.9 °F 94% 29.80 in 4.0 mi SSW 5.8 mph - N/A Rain Light Rain
12:55 PM 75.9 °F - 73.9 °F 94% 29.80 in 4.0 mi SSW 5.8 mph - N/A Rain Light Rain
1:55 PM 75.9 °F - 73.9 °F 94% 29.78 in 6.0 mi SW 3.5 mph - N/A Rain Light Rain
2:55 PM 77.0 °F - 73.9 °F 90% 29.76 in 10.0 mi SSW 6.9 mph - N/A Rain Light Rain
3:00 PM 77.0 °F - 73.4 °F 89% 29.76 in 10.0 mi SSW 4.6 mph - N/A Rain Light Rain
3:38 PM 78.8 °F - 73.4 °F 83% 29.74 in 10.0 mi SSW 5.8 mph - N/A Rain Light Rain
3:55 PM 78.1 °F - 73.9 °F 87% 29.73 in 10.0 mi WSW 4.6 mph - N/A   Overcast
4:55 PM 78.1 °F - 73.9 °F 87% 29.73 in 10.0 mi WSW 3.5 mph - N/A   Overcast
5:15 PM 78.8 °F - 73.4 °F 83% 29.74 in 10.0 mi WSW 3.5 mph - N/A   Overcast
5:55 PM 78.1 °F - 73.9 °F 87% 29.74 in 10.0 mi Calm Calm - N/A   Overcast
6:47 PM 77.0 °F - 73.4 °F 89% 29.74 in 10.0 mi Calm Calm - N/A   Overcast
6:55 PM 77.0 °F - 73.9 °F 90% 29.74 in 10.0 mi Calm Calm - N/A   Overcast
7:55 PM 77.0 °F - 73.9 °F 90% 29.75 in 10.0 mi Calm Calm - N/A   Overcast
8:55 PM 77.0 °F - 73.9 °F 90% 29.75 in 10.0 mi Calm Calm - N/A   Overcast
9:55 PM 77.0 °F - 73.9 °F 90% 29.76 in 10.0 mi Calm Calm - N/A Rain Light Rain
10:55 PM 77.0 °F - 75.0 °F 94% 29.76 in 10.0 mi Calm Calm - N/A Rain Light Rain
11:55 PM 75.0 °F - 73.0 °F 94% 29.76 in 10.0 mi North 6.9 mph - N/A Rain Rain